START_TIME,STEP,MOV.,M34,t_acc.,L5,t_acc.,L18,t_acc.,L14,t_acc.
1979-07-29 03:00:23.840 ,1,0,0.,12.0,0.,12.0,0.,12.0,0.,12.0
1979-07-29 03:00:35.840 ,1,0,0.,12.0,0.,12.0,0.,12.0,0.,12.0
1979-07-29 03:00:47.840 ,2,1,0.,12.0,0.,12.0,0.,12.0,0.,12.0
1979-07-29 03:00:59.840 ,2,1,0.,12.0,0.,12.0,0.,12.0,0.,12.0
1979-07-29 03:01:11.840 ,2,0,0.,12.0,0.,12.0,0.,12.0,0.,12.0
1979-07-29 03:01:23.840 ,2,0,0.,12.0,0.,12.0,0.,12.0,0.,12.0
1979-07-29 03:01:35.840 ,3,1,0.,12.0,0.,12.0,0.,12.0,0.,12.0
1979-07-29 03:01:47.840 ,3,1,0.,12.0,0.,12.0,0.,12.0,0.,12.0
1979-07-29 03:01:59.840 ,3,0,0.,12.0,0.,12.0,0.,12.0,0.,12.0
1979-07-29 03:02:11.840 ,3,0,0.,12.0,0.,12.0,0.,12.0,0.,12.0
1979-07-29 03:02:23.840 ,4,1,0.,12.0,0.,12.0,0.,12.0,0.,12.0
1979-07-29 03:02:35.840 ,4,1,0.,12.0,0.,12.0,0.,12.0,0.,12.0
1979-07-29 03:02:47.840 ,4,0,0.,12.0,0.,12.0,0.,12.0,0.,12.0
1979-07-29 03:02:59.840 ,4,0,0.,12.0,0.,12.0,0.,12.0,0.,12.0
1979-07-29 03:03:11.840 ,5,1,0.,12.0,0.,12.0,0.,12.0,0.,12.0
1979-07-29 03:03:23.840 ,5,1,0.,12.0,0.,12.0,0.,12.0,0.,12.0
1979-07-29 03:03:35.840 ,5,0,0.,12.0,0.,12.0,0.,12.0,0.,12.0
1979-07-29 03:03:47.840 ,5,0,0.,12.0,0.,12.0,0.,12.0,0.,12.0
1979-07-29 03:03:59.840 ,6,1,0.,12.0,0.,12.0,0.,12.0,0.,12.0
1979-07-29 03:04:11.840 ,6,1,0.,12.0,0.,12.0,0.,12.0,0.,12.0
1979-07-29 03:04:23.840 ,6,0,0.,12.0,0.,12.0,0.,12.0,0.,12.0
1979-07-29 03:04:35.840 ,6,0,0.,12.0,0.,12.0,0.,12.0,0.,12.0
1979-07-29 03:04:47.840 ,7,1,0.,12.0,0.,12.0,0.,12.0,0.,12.0
1979-07-29 03:04:59.840 ,7,1,0.,12.0,0.,12.0,0.,12.0,0.,12.0
1979-07-29 03:05:11.840 ,7,0,0.,12.0,0.,12.0,0.,12.0,0.,12.0
1979-07-29 03:05:23.840 ,7,0,0.,12.0,0.,12.0,0.,12.0,0.,12.0
1979-07-29 03:05:35.840 ,7,1,0.,12.0,0.,12.0,0.,12.0,0.,12.0
1979-07-29 03:05:47.840 ,7,1,0.,12.0,0.,12.0,0.,12.0,0.,12.0
1979-07-29 03:05:59.840 ,7,0,0.,12.0,0.,12.0,0.,12.0,0.,12.0
1979-07-29 03:06:11.840 ,7,0,0.,12.0,0.,12.0,0.,12.0,0.,12.0
1979-07-29 03:06:23.840 ,6,1,1.,12.0,0.,12.0,0.,12.0,0.,12.0
1979-07-29 03:06:35.840 ,6,1,0.,12.0,0.,12.0,0.,12.0,0.,12.0
1979-07-29 03:06:47.840 ,6,0,0.,12.0,0.,12.0,0.,12.0,0.,12.0
1979-07-29 03:06:59.840 ,6,0,0.,12.0,0.,12.0,0.,12.0,0.,12.0
1979-07-29 03:07:11.840 ,5,1,0.,12.0,0.,12.0,0.,12.0,0.,12.0
1979-07-29 03:07:23.840 ,5,1,0.,12.0,0.,12.0,0.,12.0,0.,12.0
1979-07-29 03:07:35.840 ,5,0,0.,12.0,0.,12.0,0.,12.0,0.,12.0
1979-07-29 03:07:47.840 ,5,0,0.,12.0,0.,12.0,0.,12.0,0.,12.0
1979-07-29 03:07:59.840 ,4,1,0.,12.0,0.,12.0,0.,12.0,0.,12.0
1979-07-29 03:08:11.840 ,4,1,0.,12.0,0.,12.0,0.,12.0,0.,12.0
1979-07-29 03:08:23.840 ,4,0,0.,12.0,0.,12.0,0.,12.0,0.,12.0
1979-07-29 03:08:35.840 ,4,0,0.,12.0,0.,12.0,0.,12.0,0.,12.0
1979-07-29 03:08:47.840 ,3,1,0.,12.0,0.,12.0,0.,12.0,0.,12.0
1979-07-29 03:08:59.840 ,3,1,0.,12.0,0.,12.0,0.,12.0,0.,12.0
1979-07-29 03:09:11.840 ,3,0,0.,12.0,0.,12.0,0.,12.0,0.,12.0
1979-07-29 03:09:23.840 ,3,0,0.,12.0,0.,12.0,0.,12.0,0.,12.0
1979-07-29 03:09:35.840 ,2,1,0.,12.0,0.,12.0,0.,12.0,0.,12.0
1979-07-29 03:09:47.840 ,2,1,0.,12.0,0.,12.0,0.,12.0,0.,12.0
1979-07-29 03:09:59.840 ,2,0,0.,12.0,0.,12.0,0.,12.0,0.,12.0
1979-07-29 03:10:11.840 ,2,0,0.,12.0,0.,12.0,0.,12.0,0.,12.0
1979-07-29 03:11:11.840 ,0,0,0.,12.0,0.,12.0,0.,12.0,0.,12.0
1979-07-29 03:11:23.840 ,0,0,0.,12.0,0.,12.0,0.,12.0,0.,12.0
1979-07-29 03:11:35.840 ,0,0,0.,12.0,0.,12.0,0.,12.0,0.,12.0
1979-07-29 03:11:47.840 ,0,0,0.,12.0,0.,12.0,0.,12.0,0.,12.0
1979-07-29 03:11:59.840 ,0,1,0.,12.0,0.,12.0,0.,12.0,0.,12.0
1979-07-29 03:12:11.840 ,0,1,0.,12.0,0.,12.0,0.,12.0,0.,12.0
1979-07-29 03:12:23.840 ,0,0,0.,12.0,0.,12.0,0.,12.0,0.,12.0
1979-07-29 03:12:35.840 ,0,0,1.,12.0,0.,12.0,0.,12.0,0.,12.0
1979-07-29 03:12:47.840 ,1,1,0.,12.0,0.,12.0,0.,12.0,0.,12.0
1979-07-29 03:12:59.840 ,1,1,0.,12.0,0.,12.0,0.,12.0,0.,12.0
1979-07-29 03:13:11.840 ,1,0,0.,12.0,0.,12.0,0.,12.0,0.,12.0
1979-07-29 03:13:23.840 ,1,0,0.,12.0,0.,12.0,0.,12.0,0.,12.0
1979-07-29 03:13:35.840 ,2,1,0.,12.0,0.,12.0,0.,12.0,0.,12.0
1979-07-29 03:13:47.840 ,2,1,0.,12.0,0.,12.0,0.,12.0,0.,12.0
1979-07-29 03:13:59.840 ,2,0,0.,12.0,0.,12.0,0.,12.0,0.,12.0
1979-07-29 03:14:11.840 ,2,0,0.,12.0,0.,12.0,0.,12.0,0.,12.0
1979-07-29 03:14:23.840 ,3,1,0.,12.0,0.,12.0,0.,12.0,0.,12.0
1979-07-29 03:14:35.840 ,3,1,0.,12.0,0.,12.0,0.,12.0,0.,12.0
1979-07-29 03:14:47.840 ,0,0,0.,12.0,0.,12.0,0.,12.0,0.,12.0
1979-07-29 03:14:59.840 ,0,0,0.,12.0,0.,12.0,0.,12.0,0.,12.0
1979-07-29 03:15:11.840 ,4,1,0.,12.0,0.,12.0,0.,12.0,0.,12.0
1979-07-29 03:15:23.840 ,4,1,0.,12.0,0.,12.0,0.,12.0,0.,12.0
1979-07-29 03:15:35.840 ,4,0,0.,12.0,0.,12.0,0.,12.0,0.,12.0
1979-07-29 03:15:47.840 ,4,0,0.,12.0,0.,12.0,0.,12.0,0.,12.0
1979-07-29 03:15:59.840 ,5,1,0.,12.0,0.,12.0,0.,12.0,1.,12.0
1979-07-29 03:16:11.840 ,5,1,0.,12.0,0.,12.0,0.,12.0,0.,12.0
1979-07-29 03:16:23.840 ,5,0,0.,12.0,0.,12.0,0.,12.0,0.,12.0
1979-07-29 03:16:35.840 ,5,0,0.,12.0,0.,12.0,0.,12.0,0.,12.0
1979-07-29 03:16:47.840 ,6,1,0.,12.0,0.,12.0,0.,12.0,0.,12.0
1979-07-29 03:16:59.840 ,6,1,0.,12.0,0.,12.0,0.,12.0,0.,12.0
1979-07-29 03:17:11.840 ,6,0,0.,12.0,0.,12.0,0.,12.0,0.,12.0
1979-07-29 03:17:23.840 ,6,0,0.,12.0,0.,12.0,0.,12.0,0.,12.0
1979-07-29 03:17:35.840 ,7,1,0.,12.0,0.,12.0,0.,12.0,0.,12.0
1979-07-29 03:17:47.840 ,7,1,0.,12.0,0.,12.0,0.,12.0,0.,12.0
1979-07-29 03:17:59.840 ,7,0,0.,12.0,0.,12.0,0.,12.0,0.,12.0
1979-07-29 03:18:11.840 ,7,0,0.,12.0,0.,12.0,0.,12.0,0.,12.0
1979-07-29 03:18:23.840 ,7,1,0.,12.0,0.,12.0,0.,12.0,0.,12.0
1979-07-29 03:18:35.840 ,7,1,0.,12.0,0.,12.0,0.,12.0,0.,12.0
1979-07-29 03:18:47.840 ,7,0,0.,12.0,0.,12.0,0.,12.0,0.,12.0
1979-07-29 03:18:59.840 ,7,0,0.,12.0,0.,12.0,0.,12.0,0.,12.0
1979-07-29 03:19:11.840 ,6,1,0.,12.0,0.,12.0,0.,12.0,0.,12.0
1979-07-29 03:19:23.840 ,6,1,0.,12.0,0.,12.0,0.,12.0,0.,12.0
1979-07-29 03:19:35.840 ,6,0,0.,12.0,0.,12.0,0.,12.0,0.,12.0
1979-07-29 03:19:47.840 ,6,0,0.,12.0,0.,12.0,0.,12.0,0.,12.0
1979-07-29 03:19:59.840 ,5,1,0.,12.0,0.,12.0,0.,12.0,0.,12.0
1979-07-29 03:20:11.840 ,5,1,0.,12.0,0.,12.0,0.,12.0,0.,12.0
1979-07-29 03:20:23.840 ,5,0,0.,12.0,0.,12.0,0.,12.0,0.,12.0
1979-07-29 03:20:35.840 ,5,0,0.,12.0,0.,12.0,0.,12.0,0.,12.0
1979-07-29 03:20:47.840 ,4,1,0.,12.0,0.,12.0,0.,12.0,0.,12.0
1979-07-29 03:20:59.840 ,4,1,0.,12.0,0.,12.0,0.,12.0,0.,12.0
1979-07-29 03:21:11.840 ,4,0,0.,12.0,0.,12.0,0.,12.0,0.,12.0
1979-07-29 03:21:23.840 ,4,0,0.,12.0,0.,12.0,0.,12.0,0.,12.0
1979-07-29 03:21:35.840 ,3,1,0.,12.0,0.,12.0,0.,12.0,0.,12.0
1979-07-29 03:21:47.840 ,3,1,0.,12.0,0.,12.0,0.,12.0,0.,12.0
1979-07-29 03:21:59.840 ,3,0,0.,12.0,0.,12.0,0.,12.0,0.,12.0
1979-07-29 03:22:11.840 ,3,0,0.,12.0,0.,12.0,0.,12.0,0.,12.0
1979-07-29 03:22:23.840 ,2,1,0.,12.0,0.,12.0,0.,12.0,0.,12.0
1979-07-29 03:22:35.840 ,2,1,0.,12.0,0.,12.0,0.,12.0,0.,12.0
1979-07-29 03:22:47.840 ,2,0,0.,12.0,0.,12.0,0.,12.0,0.,12.0
1979-07-29 03:22:59.840 ,2,0,0.,12.0,0.,12.0,0.,12.0,0.,12.0
1979-07-29 03:23:11.840 ,1,1,0.,12.0,0.,12.0,0.,12.0,0.,12.0
1979-07-29 03:23:23.840 ,1,1,0.,12.0,0.,12.0,0.,12.0,0.,12.0
1979-07-29 03:23:35.840 ,1,0,0.,12.0,0.,12.0,0.,12.0,0.,12.0
1979-07-29 03:23:47.840 ,1,0,0.,12.0,0.,12.0,0.,12.0,0.,12.0
1979-07-29 03:23:59.840 ,0,1,0.,12.0,0.,12.0,0.,12.0,0.,12.0
1979-07-29 03:24:11.840 ,0,1,0.,12.0,0.,12.0,0.,12.0,0.,12.0
1979-07-29 03:24:23.840 ,0,0,0.,12.0,0.,12.0,0.,12.0,0.,12.0
1979-07-29 03:24:35.840 ,0,0,0.,12.0,0.,12.0,0.,12.0,0.,12.0
1979-07-29 03:24:47.840 ,0,1,0.,12.0,0.,12.0,0.,12.0,0.,12.0
1979-07-29 03:24:59.840 ,0,1,0.,12.0,0.,12.0,0.,12.0,0.,12.0
1979-07-29 03:25:11.840 ,0,0,0.,12.0,0.,12.0,0.,12.0,0.,12.0
1979-07-29 03:25:23.840 ,0,0,0.,12.0,0.,12.0,0.,12.0,0.,12.0
1979-07-29 03:25:35.840 ,1,1,0.,12.0,0.,12.0,0.,12.0,0.,12.0
1979-07-29 03:25:47.840 ,1,1,0.,12.0,0.,12.0,0.,12.0,0.,12.0
1979-07-29 03:25:59.840 ,1,0,0.,12.0,0.,12.0,0.,12.0,0.,12.0
1979-07-29 03:26:11.840 ,1,0,0.,12.0,0.,12.0,0.,12.0,0.,12.0
1979-07-29 03:26:23.840 ,2,1,0.,12.0,0.,12.0,0.,12.0,0.,12.0
1979-07-29 03:26:35.840 ,2,1,0.,12.0,0.,12.0,0.,12.0,0.,12.0
1979-07-29 03:26:47.840 ,2,0,0.,12.0,0.,12.0,0.,12.0,0.,12.0
1979-07-29 03:26:59.840 ,2,0,0.,12.0,0.,12.0,0.,12.0,0.,12.0
1979-07-29 03:27:11.840 ,3,1,0.,12.0,0.,12.0,0.,12.0,0.,12.0
1979-07-29 03:27:23.840 ,3,1,0.,12.0,0.,12.0,0.,12.0,0.,12.0
1979-07-29 03:27:35.840 ,3,0,0.,12.0,0.,12.0,0.,12.0,0.,12.0
1979-07-29 03:27:47.840 ,3,0,0.,12.0,0.,12.0,0.,12.0,0.,12.0
1979-07-29 03:27:59.840 ,4,1,0.,12.0,0.,12.0,0.,12.0,0.,12.0
1979-07-29 03:28:11.840 ,4,1,0.,12.0,0.,12.0,0.,12.0,0.,12.0
1979-07-29 03:28:23.840 ,4,0,0.,12.0,0.,12.0,0.,12.0,0.,12.0
1979-07-29 03:28:35.840 ,4,0,0.,12.0,0.,12.0,0.,12.0,0.,12.0
1979-07-29 03:28:47.840 ,5,1,0.,12.0,0.,12.0,0.,12.0,0.,12.0
1979-07-29 03:28:59.840 ,5,1,0.,12.0,0.,12.0,0.,12.0,0.,12.0
1979-07-29 03:29:11.840 ,5,0,0.,12.0,0.,12.0,0.,12.0,0.,12.0
1979-07-29 03:29:23.840 ,5,0,0.,12.0,0.,12.0,0.,12.0,0.,12.0
1979-07-29 03:29:35.840 ,6,1,0.,12.0,0.,12.0,0.,12.0,0.,12.0
1979-07-29 03:29:47.840 ,6,1,0.,12.0,0.,12.0,0.,12.0,0.,12.0
1979-07-29 03:29:59.840 ,6,0,0.,12.0,0.,12.0,0.,12.0,0.,12.0
1979-07-29 03:30:11.840 ,6,0,0.,12.0,0.,12.0,0.,12.0,0.,12.0
1979-07-29 03:30:23.840 ,7,0,0.,12.0,0.,12.0,0.,12.0,0.,12.0
1979-07-29 03:30:35.840 ,7,0,0.,12.0,0.,12.0,0.,12.0,0.,12.0
1979-07-29 03:30:47.840 ,7,0,0.,12.0,0.,12.0,0.,12.0,0.,12.0
1979-07-29 03:30:59.840 ,7,0,0.,12.0,0.,12.0,0.,12.0,0.,12.0
1979-07-29 03:31:11.840 ,4,1,0.,12.0,0.,12.0,0.,12.0,0.,12.0
1979-07-29 03:31:23.840 ,4,1,0.,12.0,0.,12.0,0.,12.0,0.,12.0
1979-07-29 03:31:35.840 ,0,1,0.,12.0,0.,12.0,0.,12.0,0.,12.0
1979-07-29 03:31:47.840 ,0,1,0.,12.0,0.,12.0,0.,12.0,0.,12.0
1979-07-29 03:31:59.840 ,3,1,0.,12.0,0.,12.0,0.,12.0,0.,12.0
1979-07-29 03:32:11.840 ,3,1,0.,12.0,0.,12.0,0.,12.0,0.,12.0
1979-07-29 03:32:23.840 ,7,1,0.,12.0,0.,12.0,0.,12.0,0.,12.0
1979-07-29 03:32:35.840 ,7,1,0.,12.0,0.,12.0,0.,12.0,0.,12.0
1979-07-29 03:32:47.840 ,4,1,0.,12.0,0.,12.0,0.,12.0,0.,12.0
1979-07-29 03:32:59.840 ,4,1,0.,12.0,0.,12.0,0.,12.0,0.,12.0
1979-07-29 03:33:11.840 ,0,1,0.,12.0,0.,12.0,0.,12.0,0.,12.0
1979-07-29 03:33:23.840 ,0,1,0.,12.0,0.,12.0,0.,12.0,0.,12.0
1979-07-29 03:33:35.840 ,3,1,0.,12.0,0.,12.0,0.,12.0,0.,12.0
1979-07-29 03:33:47.840 ,3,1,0.,12.0,0.,12.0,0.,12.0,0.,12.0
1979-07-29 03:33:59.840 ,7,1,0.,12.0,0.,12.0,0.,12.0,0.,12.0
1979-07-29 03:34:11.840 ,7,1,0.,12.0,0.,12.0,0.,12.0,0.,12.0
1979-07-29 03:34:23.840 ,4,1,0.,12.0,0.,12.0,0.,12.0,0.,12.0
1979-07-29 03:34:35.840 ,4,1,0.,12.0,0.,12.0,0.,12.0,0.,12.0
1979-07-29 03:34:47.840 ,0,1,0.,12.0,0.,12.0,0.,12.0,0.,12.0
1979-07-29 03:34:59.840 ,0,1,0.,12.0,0.,12.0,0.,12.0,0.,12.0
1979-07-29 03:35:11.840 ,3,1,0.,12.0,0.,12.0,0.,12.0,0.,12.0
1979-07-29 03:35:23.840 ,3,1,0.,12.0,0.,12.0,0.,12.0,0.,12.0
1979-07-29 03:35:35.840 ,7,1,0.,12.0,0.,12.0,0.,12.0,0.,12.0
1979-07-29 03:35:47.840 ,7,1,0.,12.0,0.,12.0,0.,12.0,0.,12.0
1979-07-29 03:35:59.840 ,4,1,0.,12.0,0.,12.0,0.,12.0,0.,12.0
1979-07-29 03:36:11.840 ,4,1,0.,12.0,0.,12.0,0.,12.0,0.,12.0
1979-07-29 03:36:23.840 ,0,1,0.,12.0,0.,12.0,0.,12.0,0.,12.0
1979-07-29 03:36:35.840 ,0,1,0.,12.0,0.,12.0,0.,12.0,0.,12.0
1979-07-29 03:36:47.840 ,3,1,0.,12.0,0.,12.0,0.,12.0,0.,12.0
1979-07-29 03:36:59.840 ,3,1,0.,12.0,0.,12.0,0.,12.0,0.,12.0
1979-07-29 03:37:11.840 ,7,1,0.,12.0,0.,12.0,0.,12.0,0.,12.0
1979-07-29 03:37:23.840 ,7,1,0.,12.0,0.,12.0,0.,12.0,0.,12.0
1979-07-29 03:37:35.840 ,4,1,0.,12.0,0.,12.0,0.,12.0,0.,12.0
1979-07-29 03:37:47.840 ,4,1,0.,12.0,0.,12.0,0.,12.0,0.,12.0
1979-07-29 03:37:59.840 ,0,1,0.,12.0,0.,12.0,0.,12.0,0.,12.0
1979-07-29 03:38:11.840 ,0,1,0.,12.0,0.,12.0,0.,12.0,0.,12.0
1979-07-29 03:38:23.840 ,3,1,0.,12.0,0.,12.0,0.,12.0,0.,12.0
1979-07-29 03:38:35.840 ,3,1,0.,12.0,0.,12.0,0.,12.0,0.,12.0
1979-07-29 03:38:47.840 ,7,1,0.,12.0,0.,12.0,0.,12.0,0.,12.0
1979-07-29 03:38:59.840 ,7,1,0.,12.0,0.,12.0,0.,12.0,0.,12.0
1979-07-29 03:39:11.840 ,4,1,0.,12.0,0.,12.0,0.,12.0,0.,12.0
1979-07-29 03:39:23.840 ,4,1,0.,12.0,0.,12.0,0.,12.0,0.,12.0
1979-07-29 03:39:35.840 ,0,1,0.,12.0,0.,12.0,0.,12.0,0.,12.0
1979-07-29 03:39:47.840 ,0,1,0.,12.0,0.,12.0,0.,12.0,0.,12.0
1979-07-29 03:39:59.840 ,3,1,0.,12.0,0.,12.0,0.,12.0,0.,12.0
1979-07-29 03:40:11.840 ,3,1,0.,12.0,0.,12.0,0.,12.0,0.,12.0
1979-07-29 03:40:23.840 ,7,1,0.,12.0,0.,12.0,0.,12.0,0.,12.0
1979-07-29 03:40:35.840 ,7,1,0.,12.0,0.,12.0,0.,12.0,0.,12.0
1979-07-29 03:40:47.840 ,4,1,0.,12.0,0.,12.0,0.,12.0,0.,12.0
1979-07-29 03:40:59.840 ,4,1,0.,12.0,0.,12.0,0.,12.0,0.,12.0
1979-07-29 03:41:11.840 ,0,1,0.,12.0,0.,12.0,0.,12.0,0.,12.0
1979-07-29 03:41:23.840 ,0,1,0.,12.0,0.,12.0,0.,12.0,0.,12.0
1979-07-29 03:41:35.840 ,0,0,0.,12.0,0.,12.0,0.,12.0,0.,12.0
1979-07-29 03:41:47.840 ,0,0,0.,12.0,0.,12.0,0.,12.0,0.,12.0
1979-07-29 03:41:59.840 ,0,0,0.,12.0,0.,12.0,0.,12.0,0.,12.0
1979-07-29 03:42:11.840 ,0,0,0.,12.0,0.,12.0,0.,12.0,0.,12.0
1979-07-29 03:42:23.840 ,5,1,0.,12.0,0.,12.0,0.,12.0,0.,12.0
1979-07-29 03:42:35.840 ,5,1,0.,12.0,0.,12.0,0.,12.0,0.,12.0
1979-07-29 03:42:47.840 ,5,0,0.,12.0,0.,12.0,0.,12.0,0.,12.0
1979-07-29 03:42:59.840 ,5,0,0.,12.0,0.,12.0,0.,12.0,0.,12.0
1979-07-29 03:43:11.840 ,4,1,0.,12.0,0.,12.0,0.,12.0,0.,12.0
1979-07-29 03:43:23.840 ,4,1,0.,12.0,0.,12.0,0.,12.0,0.,12.0
1979-07-29 03:43:35.840 ,4,0,0.,12.0,0.,12.0,0.,12.0,0.,12.0
1979-07-29 03:43:47.840 ,4,0,0.,12.0,0.,12.0,0.,12.0,0.,12.0
1979-07-29 03:43:59.840 ,3,1,0.,12.0,0.,12.0,0.,12.0,0.,12.0
1979-07-29 03:44:11.840 ,3,1,0.,12.0,0.,12.0,0.,12.0,0.,12.0
1979-07-29 03:44:23.840 ,3,0,0.,12.0,0.,12.0,0.,12.0,0.,12.0
1979-07-29 03:44:35.840 ,3,0,0.,12.0,0.,12.0,0.,12.0,0.,12.0
1979-07-29 03:44:47.840 ,2,1,0.,12.0,0.,12.0,0.,12.0,0.,12.0
1979-07-29 03:44:59.840 ,2,1,0.,12.0,0.,12.0,0.,12.0,0.,12.0
1979-07-29 03:45:11.840 ,2,0,0.,12.0,0.,12.0,0.,12.0,0.,12.0
1979-07-29 03:45:23.840 ,2,0,0.,12.0,0.,12.0,0.,12.0,0.,12.0
1979-07-29 03:45:35.840 ,1,1,0.,12.0,0.,12.0,0.,12.0,0.,12.0
1979-07-29 03:45:47.840 ,1,1,0.,12.0,0.,12.0,0.,12.0,0.,12.0
1979-07-29 03:45:59.840 ,1,0,0.,12.0,0.,12.0,0.,12.0,0.,12.0
1979-07-29 03:46:11.840 ,1,0,0.,12.0,0.,12.0,0.,12.0,0.,12.0
1979-07-29 03:46:23.840 ,0,1,0.,12.0,0.,12.0,0.,12.0,0.,12.0
1979-07-29 03:46:35.840 ,0,1,0.,12.0,0.,12.0,0.,12.0,0.,12.0
1979-07-29 03:46:47.840 ,0,0,0.,12.0,0.,12.0,0.,12.0,0.,12.0
1979-07-29 03:46:59.840 ,0,0,0.,12.0,0.,12.0,0.,12.0,0.,12.0
1979-07-29 03:47:11.840 ,0,1,0.,12.0,0.,12.0,0.,12.0,0.,12.0
1979-07-29 03:47:23.840 ,0,1,0.,12.0,0.,12.0,0.,12.0,0.,12.0
1979-07-29 03:47:35.840 ,0,0,0.,12.0,0.,12.0,0.,12.0,0.,12.0
1979-07-29 03:47:47.840 ,0,0,0.,12.0,0.,12.0,0.,12.0,0.,12.0
1979-07-29 03:47:59.840 ,1,1,0.,12.0,0.,12.0,0.,12.0,0.,12.0
1979-07-29 03:48:11.840 ,1,1,0.,12.0,0.,12.0,0.,12.0,0.,12.0
1979-07-29 03:48:23.840 ,1,0,0.,12.0,0.,12.0,0.,12.0,0.,12.0
1979-07-29 03:48:35.840 ,1,0,0.,12.0,0.,12.0,0.,12.0,0.,12.0
1979-07-29 03:48:47.840 ,2,1,0.,12.0,0.,12.0,0.,12.0,0.,12.0
1979-07-29 03:48:59.840 ,2,1,0.,12.0,0.,12.0,0.,12.0,0.,12.0
1979-07-29 03:49:11.840 ,2,0,0.,12.0,0.,12.0,0.,12.0,0.,12.0
1979-07-29 03:49:23.840 ,2,0,0.,12.0,0.,12.0,0.,12.0,0.,12.0
1979-07-29 03:49:35.840 ,3,1,0.,12.0,0.,12.0,0.,12.0,0.,12.0
1979-07-29 03:49:47.840 ,3,1,0.,12.0,0.,12.0,0.,12.0,0.,12.0
1979-07-29 03:49:59.840 ,3,0,0.,12.0,0.,12.0,0.,12.0,0.,12.0
1979-07-29 03:50:11.840 ,3,0,0.,12.0,0.,12.0,0.,12.0,0.,12.0
1979-07-29 03:50:23.840 ,4,1,0.,12.0,0.,12.0,0.,12.0,0.,12.0
1979-07-29 03:50:35.840 ,4,1,0.,12.0,0.,12.0,0.,12.0,0.,12.0
1979-07-29 03:50:47.840 ,4,0,0.,12.0,0.,12.0,0.,12.0,0.,12.0
1979-07-29 03:50:59.840 ,4,0,0.,12.0,0.,12.0,0.,12.0,0.,12.0
1979-07-29 03:51:11.840 ,5,1,0.,12.0,0.,12.0,0.,12.0,0.,12.0
1979-07-29 03:51:23.840 ,5,1,0.,12.0,0.,12.0,0.,12.0,0.,12.0
1979-07-29 03:51:35.840 ,5,0,0.,12.0,0.,12.0,0.,12.0,0.,12.0
1979-07-29 03:51:47.840 ,5,0,0.,12.0,0.,12.0,0.,12.0,0.,12.0
1979-07-29 03:51:59.840 ,6,1,0.,12.0,0.,12.0,0.,12.0,0.,12.0
1979-07-29 03:52:11.840 ,6,1,0.,12.0,0.,12.0,0.,12.0,0.,12.0
1979-07-29 03:52:23.840 ,6,0,0.,12.0,0.,12.0,0.,12.0,0.,12.0
1979-07-29 03:52:35.840 ,6,0,0.,12.0,0.,12.0,0.,12.0,0.,12.0
1979-07-29 03:52:47.840 ,7,1,0.,12.0,0.,12.0,0.,12.0,0.,12.0
1979-07-29 03:52:59.840 ,7,1,0.,12.0,0.,12.0,0.,12.0,0.,12.0
1979-07-29 03:53:11.840 ,7,0,0.,12.0,0.,12.0,0.,12.0,0.,12.0
1979-07-29 03:53:23.840 ,7,0,0.,12.0,0.,12.0,0.,12.0,0.,12.0
1979-07-29 03:53:35.840 ,7,1,0.,12.0,0.,12.0,0.,12.0,0.,12.0
1979-07-29 03:53:47.840 ,7,1,0.,12.0,0.,12.0,0.,12.0,0.,12.0
1979-07-29 03:53:59.840 ,7,0,0.,12.0,0.,12.0,0.,12.0,0.,12.0
1979-07-29 03:54:11.840 ,7,0,0.,12.0,0.,12.0,0.,12.0,0.,12.0
1979-07-29 03:54:23.840 ,6,1,0.,12.0,0.,12.0,0.,12.0,0.,12.0
1979-07-29 03:54:35.840 ,6,1,0.,12.0,0.,12.0,0.,12.0,0.,12.0
1979-07-29 03:54:47.840 ,6,0,0.,12.0,0.,12.0,0.,12.0,0.,12.0
1979-07-29 03:54:59.840 ,6,0,0.,12.0,0.,12.0,0.,12.0,0.,12.0
1979-07-29 03:55:11.840 ,5,1,0.,12.0,0.,12.0,0.,12.0,0.,12.0
1979-07-29 03:55:23.840 ,5,1,0.,12.0,0.,12.0,0.,12.0,0.,12.0
1979-07-29 03:55:35.840 ,5,0,0.,12.0,0.,12.0,0.,12.0,0.,12.0
1979-07-29 03:55:47.840 ,5,0,0.,12.0,0.,12.0,0.,12.0,0.,12.0
1979-07-29 03:55:59.840 ,4,1,0.,12.0,0.,12.0,0.,12.0,0.,12.0
1979-07-29 03:56:11.840 ,4,1,0.,12.0,0.,12.0,0.,12.0,0.,12.0
1979-07-29 03:56:23.840 ,4,0,0.,12.0,0.,12.0,0.,12.0,0.,12.0
1979-07-29 03:56:35.840 ,4,0,0.,12.0,0.,12.0,0.,12.0,0.,12.0
1979-07-29 03:56:47.840 ,3,1,0.,12.0,0.,12.0,0.,12.0,0.,12.0
1979-07-29 03:56:59.840 ,3,1,0.,12.0,0.,12.0,0.,12.0,0.,12.0
1979-07-29 03:57:11.840 ,3,0,0.,12.0,0.,12.0,0.,12.0,0.,12.0
1979-07-29 03:57:23.840 ,3,0,0.,12.0,0.,12.0,0.,12.0,0.,12.0
1979-07-29 03:57:35.840 ,2,1,0.,12.0,0.,12.0,0.,12.0,0.,12.0
1979-07-29 03:57:47.840 ,2,1,0.,12.0,0.,12.0,0.,12.0,0.,12.0
1979-07-29 03:57:59.840 ,2,0,0.,12.0,0.,12.0,0.,12.0,0.,12.0
1979-07-29 03:58:11.840 ,2,0,0.,12.0,0.,12.0,0.,12.0,0.,12.0
1979-07-29 03:58:23.840 ,1,1,0.,12.0,0.,12.0,0.,12.0,0.,12.0
1979-07-29 03:58:35.840 ,1,1,0.,12.0,0.,12.0,0.,12.0,0.,12.0
1979-07-29 03:58:47.840 ,1,0,0.,12.0,0.,12.0,0.,12.0,0.,12.0
1979-07-29 03:58:59.840 ,1,0,0.,12.0,0.,12.0,0.,12.0,0.,12.0
1979-07-29 03:59:11.840 ,0,1,0.,12.0,0.,12.0,0.,12.0,0.,12.0
1979-07-29 03:59:23.840 ,0,1,0.,12.0,0.,12.0,0.,12.0,0.,12.0
1979-07-29 03:59:35.840 ,0,0,0.,12.0,0.,12.0,0.,12.0,0.,12.0
1979-07-29 03:59:47.840 ,0,0,0.,12.0,0.,12.0,0.,12.0,0.,12.0
1979-07-29 03:59:59.840 ,0,1,0.,12.0,0.,12.0,0.,12.0,0.,12.0
1979-07-29 04:00:11.840 ,0,1,0.,12.0,0.,12.0,0.,12.0,0.,12.0
1979-07-29 04:00:23.840 ,0,0,0.,12.0,0.,12.0,0.,12.0,0.,12.0
1979-07-29 04:00:35.840 ,0,0,0.,12.0,0.,12.0,0.,12.0,0.,12.0
1979-07-29 04:00:47.840 ,1,1,0.,12.0,0.,12.0,0.,12.0,0.,12.0
1979-07-29 04:00:59.840 ,1,1,0.,12.0,0.,12.0,0.,12.0,0.,12.0
1979-07-29 04:01:11.840 ,1,0,0.,12.0,0.,12.0,0.,12.0,0.,12.0
1979-07-29 04:01:23.840 ,1,0,0.,12.0,0.,12.0,0.,12.0,0.,12.0
1979-07-29 04:01:35.840 ,2,1,0.,12.0,0.,12.0,0.,12.0,0.,12.0
1979-07-29 04:01:47.840 ,2,1,0.,12.0,0.,12.0,0.,12.0,0.,12.0
1979-07-29 04:01:59.840 ,2,0,0.,12.0,0.,12.0,0.,12.0,0.,12.0
1979-07-29 04:02:11.840 ,2,0,0.,12.0,0.,12.0,0.,12.0,0.,12.0
1979-07-29 04:02:23.840 ,3,1,0.,12.0,0.,12.0,0.,12.0,0.,12.0
1979-07-29 04:02:35.840 ,3,1,0.,12.0,0.,12.0,0.,12.0,0.,12.0
1979-07-29 04:02:47.840 ,3,0,0.,12.0,0.,12.0,0.,12.0,0.,12.0
1979-07-29 04:02:59.840 ,3,0,0.,12.0,0.,12.0,0.,12.0,0.,12.0
1979-07-29 04:03:11.840 ,4,1,0.,12.0,0.,12.0,0.,12.0,0.,12.0
1979-07-29 04:03:23.840 ,4,1,0.,12.0,0.,12.0,0.,12.0,0.,12.0
1979-07-29 04:03:35.840 ,4,0,0.,12.0,0.,12.0,0.,12.0,0.,12.0
1979-07-29 04:03:47.840 ,4,0,0.,12.0,0.,12.0,0.,12.0,0.,12.0
1979-07-29 04:03:59.840 ,5,1,0.,12.0,0.,12.0,0.,12.0,0.,12.0
1979-07-29 04:04:11.840 ,5,1,0.,12.0,0.,12.0,0.,12.0,0.,12.0
1979-07-29 04:04:23.840 ,5,0,0.,12.0,0.,12.0,0.,12.0,0.,12.0
1979-07-29 04:04:35.840 ,5,0,0.,12.0,0.,12.0,0.,12.0,0.,12.0
1979-07-29 04:04:47.840 ,6,1,0.,12.0,0.,12.0,0.,12.0,0.,12.0
1979-07-29 04:04:59.840 ,6,1,0.,12.0,0.,12.0,0.,12.0,0.,12.0
1979-07-29 04:05:11.840 ,6,0,0.,12.0,0.,12.0,0.,12.0,0.,12.0
1979-07-29 04:05:23.840 ,6,0,0.,12.0,0.,12.0,0.,12.0,0.,12.0
1979-07-29 04:05:35.840 ,7,1,0.,12.0,0.,12.0,0.,12.0,0.,12.0
1979-07-29 04:05:47.840 ,7,1,0.,12.0,0.,12.0,0.,12.0,0.,12.0
1979-07-29 04:05:59.840 ,7,0,0.,12.0,0.,12.0,0.,12.0,0.,12.0
1979-07-29 04:06:11.840 ,7,0,0.,12.0,0.,12.0,0.,12.0,0.,12.0
1979-07-29 04:06:23.840 ,7,1,0.,12.0,0.,12.0,0.,12.0,0.,12.0
1979-07-29 04:06:35.840 ,7,1,0.,12.0,0.,12.0,0.,12.0,0.,12.0
1979-07-29 04:06:47.840 ,7,0,0.,12.0,0.,12.0,0.,12.0,0.,12.0
1979-07-29 04:06:59.840 ,7,0,0.,12.0,0.,12.0,0.,12.0,0.,12.0
1979-07-29 04:07:11.840 ,6,1,0.,12.0,0.,12.0,0.,12.0,0.,12.0
1979-07-29 04:07:23.840 ,6,1,0.,12.0,0.,12.0,0.,12.0,0.,12.0
1979-07-29 04:07:59.840 ,5,1,0.,12.0,0.,12.0,0.,12.0,0.,12.0
1979-07-29 04:08:11.840 ,5,1,0.,12.0,0.,12.0,0.,12.0,0.,12.0
1979-07-29 04:08:23.840 ,5,0,0.,12.0,0.,12.0,0.,12.0,0.,12.0
1979-07-29 04:08:35.840 ,5,0,0.,12.0,0.,12.0,0.,12.0,0.,12.0
1979-07-29 04:08:47.840 ,4,1,0.,12.0,0.,12.0,0.,12.0,0.,12.0
1979-07-29 04:08:59.840 ,4,1,0.,12.0,0.,12.0,0.,12.0,0.,12.0
1979-07-29 04:09:11.840 ,4,0,0.,12.0,0.,12.0,0.,12.0,0.,12.0
1979-07-29 04:09:23.840 ,4,0,0.,12.0,0.,12.0,0.,12.0,0.,12.0
1979-07-29 04:09:35.840 ,3,1,0.,12.0,0.,12.0,0.,12.0,0.,12.0
1979-07-29 04:09:47.840 ,3,1,0.,12.0,0.,12.0,0.,12.0,0.,12.0
1979-07-29 04:09:59.840 ,3,0,0.,12.0,0.,12.0,0.,12.0,0.,12.0
1979-07-29 04:10:11.840 ,3,0,0.,12.0,0.,12.0,0.,12.0,0.,12.0
1979-07-29 04:10:23.840 ,2,1,0.,12.0,0.,12.0,0.,12.0,0.,12.0
1979-07-29 04:10:35.840 ,2,1,0.,12.0,0.,12.0,0.,12.0,0.,12.0
1979-07-29 04:10:47.840 ,2,0,0.,12.0,0.,12.0,0.,12.0,0.,12.0
1979-07-29 04:10:59.840 ,2,0,0.,12.0,0.,12.0,0.,12.0,0.,12.0
1979-07-29 04:11:35.840 ,1,0,0.,12.0,0.,12.0,0.,12.0,0.,12.0
1979-07-29 04:11:47.840 ,1,0,0.,12.0,0.,12.0,0.,12.0,0.,12.0
1979-07-29 04:11:59.840 ,0,1,0.,12.0,0.,12.0,0.,12.0,0.,12.0
1979-07-29 04:12:11.840 ,0,1,0.,12.0,0.,12.0,0.,12.0,0.,12.0
1979-07-29 04:12:23.840 ,0,0,0.,12.0,0.,12.0,0.,12.0,0.,12.0
1979-07-29 04:12:35.840 ,0,0,0.,12.0,0.,12.0,0.,12.0,0.,12.0
1979-07-29 04:12:47.840 ,0,1,0.,12.0,0.,12.0,0.,12.0,0.,12.0
1979-07-29 04:12:59.840 ,0,1,0.,12.0,0.,12.0,0.,12.0,0.,12.0
1979-07-29 04:13:11.840 ,0,0,0.,12.0,0.,12.0,0.,12.0,0.,12.0
1979-07-29 04:13:23.840 ,0,0,0.,12.0,0.,12.0,0.,12.0,0.,12.0
1979-07-29 04:13:35.840 ,1,1,0.,12.0,0.,12.0,0.,12.0,0.,12.0
1979-07-29 04:13:47.840 ,1,1,0.,12.0,0.,12.0,0.,12.0,0.,12.0
1979-07-29 04:13:59.840 ,1,0,0.,12.0,0.,12.0,0.,12.0,0.,12.0
1979-07-29 04:14:11.840 ,1,0,0.,12.0,0.,12.0,0.,12.0,0.,12.0
1979-07-29 04:14:23.840 ,2,1,0.,12.0,0.,12.0,0.,12.0,0.,12.0
1979-07-29 04:14:35.840 ,2,1,0.,12.0,0.,12.0,0.,12.0,0.,12.0
1979-07-29 04:14:47.840 ,2,0,0.,12.0,0.,12.0,0.,12.0,0.,12.0
1979-07-29 04:14:59.840 ,2,0,0.,12.0,0.,12.0,0.,12.0,0.,12.0
1979-07-29 04:15:11.840 ,3,1,0.,12.0,0.,12.0,0.,12.0,0.,12.0
1979-07-29 04:15:23.840 ,3,1,0.,12.0,0.,12.0,0.,12.0,0.,12.0
1979-07-29 04:15:35.840 ,3,0,0.,12.0,0.,12.0,0.,12.0,0.,12.0
1979-07-29 04:15:47.840 ,3,0,0.,12.0,0.,12.0,0.,12.0,0.,12.0
1979-07-29 04:15:59.840 ,4,1,0.,12.0,0.,12.0,0.,12.0,0.,12.0
1979-07-29 04:16:11.840 ,4,1,0.,12.0,0.,12.0,0.,12.0,0.,12.0
1979-07-29 04:16:23.840 ,4,0,0.,12.0,0.,12.0,0.,12.0,0.,12.0
1979-07-29 04:16:35.840 ,4,0,0.,12.0,0.,12.0,0.,12.0,1.,12.0
1979-07-29 04:16:47.840 ,5,1,0.,12.0,0.,12.0,0.,12.0,0.,12.0
1979-07-29 04:16:59.840 ,5,1,0.,12.0,0.,12.0,0.,12.0,0.,12.0
1979-07-29 04:17:11.830 ,5,0,0.,12.0,0.,12.0,0.,12.0,0.,12.0
1979-07-29 04:17:23.830 ,5,0,0.,12.0,0.,12.0,0.,12.0,0.,12.0
1979-07-29 04:17:35.830 ,6,1,0.,12.0,0.,12.0,0.,12.0,0.,12.0
1979-07-29 04:17:47.830 ,6,1,0.,12.0,0.,12.0,0.,12.0,0.,12.0
1979-07-29 04:17:59.830 ,6,0,0.,12.0,0.,12.0,0.,12.0,0.,12.0
1979-07-29 04:18:11.830 ,6,0,0.,12.0,0.,12.0,0.,12.0,0.,12.0
1979-07-29 04:18:23.830 ,7,0,0.,12.0,0.,12.0,0.,12.0,0.,12.0
1979-07-29 04:18:35.830 ,7,0,0.,12.0,0.,12.0,0.,12.0,0.,12.0
1979-07-29 04:18:47.830 ,7,0,0.,12.0,0.,12.0,0.,12.0,0.,12.0
1979-07-29 04:18:59.830 ,7,0,0.,12.0,0.,12.0,0.,12.0,0.,12.0